| time (UTC) | temp F | wind direction | speed knots | gust knots | rain 1hr in | rain 24hr in | rain mn in | humidity % | barometer mb |
| 20260507075506 | 52 | 161 | 0.0 | 1.7 | 0.01 | 0.14 | 0.01 | 96 | 1005.9 |
| 20260507075010 | 52 | 161 | 0.0 | 0.9 | 0.01 | 0.14 | 0.01 | 96 | 1006.0 |
| 20260507074522 | 52 | 161 | 0.0 | 0.0 | 0.01 | 0.14 | 0.01 | 96 | 1006.2 |
| 20260507073005 | 52 | 161 | 0.0 | 1.7 | 0.00 | 0.13 | 0.00 | 96 | 1006.1 |
| 20260507072504 | 52 | 161 | 0.0 | 1.7 | 0.00 | 0.13 | 0.00 | 96 | 1006.2 |
| 20260507072003 | 52 | 161 | 0.0 | 1.7 | 0.00 | 0.13 | 0.00 | 96 | 1006.3 |
| 20260507071506 | 52 | 161 | 0.0 | 1.7 | 0.00 | 0.13 | 0.00 | 96 | 1006.2 |
| 20260507071003 | 52 | 161 | 0.0 | 1.7 | 0.00 | 0.13 | 0.00 | 96 | 1006.3 |
| 20260507070504 | 52 | 158 | 0.0 | 2.6 | 0.00 | 0.13 | 0.00 | 96 | 1006.6 |
| 20260507070012 | 52 | 168 | 0.0 | 2.6 | 0.00 | 0.13 | 0.00 | 96 | 1006.6 |
| 20260507065505 | 52 | 197 | 0.0 | 1.7 | 0.00 | 0.13 | 0.00 | 96 | 1006.6 |
| 20260507065003 | 52 | 197 | 0.9 | 1.7 | 0.00 | 0.13 | 0.00 | 96 | 1006.6 |
| 20260507064504 | 52 | 198 | 0.9 | 1.7 | 0.00 | 0.13 | 0.00 | 96 | 1006.5 |
| 20260507064003 | 52 | 169 | 0.0 | 1.7 | 0.00 | 0.13 | 0.00 | 96 | 1006.3 |
| 20260507063507 | 52 | 185 | 0.0 | 1.7 | 0.00 | 0.13 | 0.00 | 96 | 1006.2 |
| 20260507063007 | 52 | 167 | 0.9 | 1.7 | 0.00 | 0.13 | 0.00 | 95 | 1006.5 |
| 20260507062503 | 52 | 167 | 0.9 | 3.5 | 0.00 | 0.13 | 0.00 | 96 | 1006.5 |
| 20260507062003 | 52 | 184 | 0.9 | 3.5 | 0.00 | 0.13 | 0.00 | 96 | 1006.8 |
| 20260507061504 | 52 | 189 | 0.9 | 1.7 | 0.00 | 0.13 | 0.00 | 96 | 1006.8 |
| 20260507061004 | 52 | 187 | 0.9 | 2.6 | 0.00 | 0.13 | 0.00 | 95 | 1006.8 |
| 20260507060505 | 52 | 188 | 0.9 | 2.6 | 0.00 | 0.13 | 0.00 | 95 | 1007.0 |
| 20260507060004 | 52 | 169 | 0.9 | 1.7 | 0.00 | 0.13 | 0.00 | 95 | 1007.1 |
| 20260507055504 | 53 | 203 | 0.9 | 1.7 | 0.00 | 0.13 | 0.00 | 95 | 1007.0 |
| 20260507055008 | 53 | 191 | 0.0 | 2.6 | 0.00 | 0.13 | 0.00 | 95 | 1007.3 |
| 20260507054507 | 53 | 195 | 0.9 | 2.6 | 0.00 | 0.13 | 0.00 | 95 | 1007.3 |
| 20260507054003 | 53 | 176 | 0.9 | 2.6 | 0.00 | 0.13 | 0.00 | 95 | 1007.3 |
| 20260507053505 | 53 | 184 | 0.9 | 4.3 | 0.00 | 0.13 | 0.00 | 95 | 1007.2 |
| 20260507053003 | 53 | 211 | 1.7 | 4.3 | 0.00 | 0.13 | 0.00 | 95 | 1007.3 |
| 20260507052503 | 53 | 205 | 0.9 | 2.6 | 0.00 | 0.13 | 0.00 | 96 | 1007.5 |
| 20260507052006 | 53 | 189 | 0.9 | 2.6 | 0.00 | 0.13 | 0.00 | 95 | 1007.5 |
| 20260507051506 | 53 | 160 | 0.9 | 6.1 | 0.00 | 0.13 | 0.00 | 95 | 1007.4 |
| 20260507051006 | 53 | 205 | 1.7 | 6.1 | 0.00 | 0.13 | 0.00 | 95 | 1007.7 |
| 20260507050505 | 53 | 181 | 0.9 | 2.6 | 0.00 | 0.13 | 0.00 | 95 | 1007.8 |
| 20260507050014 | 53 | 176 | 1.7 | 3.5 | 0.00 | 0.13 | 0.00 | 95 | 1007.8 |
| 20260507045505 | 54 | 155 | 0.9 | 3.5 | 0.00 | 0.13 | 0.00 | 95 | 1007.9 |
| 20260507045004 | 54 | 181 | 0.9 | 3.5 | 0.00 | 0.13 | 0.00 | 95 | 1007.7 |
| 20260507044508 | 54 | 177 | 1.7 | 3.5 | 0.00 | 0.13 | 0.00 | 96 | 1007.9 |
| 20260507044007 | 54 | 162 | 0.9 | 1.7 | 0.00 | 0.13 | 0.00 | 95 | 1007.8 |
| 20260507043507 | 54 | 186 | 0.9 | 1.7 | 0.00 | 0.13 | 0.00 | 95 | 1007.6 |
| 20260507043016 | 54 | 158 | 0.9 | 1.7 | 0.00 | 0.13 | 0.00 | 95 | 1007.7 |
| 20260507042509 | 54 | 176 | 0.9 | 3.5 | 0.00 | 0.13 | 0.00 | 95 | 1007.6 |
| 20260507042006 | 54 | 191 | 0.9 | 3.5 | 0.00 | 0.13 | 0.00 | 95 | 1007.7 |
| 20260507041509 | 54 | 158 | 0.9 | 2.6 | 0.00 | 0.13 | 0.00 | 95 | 1007.8 |
| 20260507041008 | 54 | 168 | 0.9 | 2.6 | 0.00 | 0.13 | 0.00 | 95 | 1008.0 |
| 20260507040506 | 54 | 205 | 0.9 | 3.5 | 0.00 | 0.13 | 0.00 | 95 | 1008.2 |
| 20260507040009 | 54 | 174 | 0.9 | 3.5 | 0.00 | 0.13 | 0.00 | 95 | 1008.3 |
| 20260507035510 | 54 | 191 | 0.9 | 5.2 | 0.00 | 0.13 | 0.13 | 95 | 1008.2 |
| 20260507035007 | 55 | 195 | 1.7 | 6.1 | 0.00 | 0.13 | 0.13 | 95 | 1008.1 |
| 20260507034520 | 55 | 204 | 2.6 | 6.1 | 0.00 | 0.13 | 0.13 | 95 | 1008.0 |
| 20260507034003 | 55 | 210 | 0.9 | 4.3 | 0.00 | 0.13 | 0.13 | 95 | 1008.2 |
| 20260507033503 | 55 | 181 | 0.9 | 4.3 | 0.00 | 0.13 | 0.13 | 95 | 1008.1 |
| 20260507033015 | 55 | 160 | 0.9 | 3.5 | 0.00 | 0.13 | 0.13 | 95 | 1008.2 |
| 20260507032507 | 55 | 172 | 1.7 | 3.5 | 0.00 | 0.13 | 0.13 | 95 | 1008.0 |
| 20260507032010 | 55 | 175 | 1.7 | 4.3 | 0.00 | 0.13 | 0.13 | 95 | 1007.9 |
| 20260507031512 | 55 | 174 | 1.7 | 3.5 | 0.00 | 0.13 | 0.13 | 95 | 1007.8 |
| 20260507031003 | 55 | 199 | 1.7 | 2.6 | 0.00 | 0.13 | 0.13 | 95 | 1007.9 |
| 20260507030509 | 55 | 179 | 1.7 | 3.5 | 0.00 | 0.13 | 0.13 | 95 | 1007.9 |
| 20260507030014 | 55 | 167 | 0.9 | 5.2 | 0.00 | 0.13 | 0.13 | 95 | 1007.9 |
| 20260507025505 | 55 | 168 | 0.9 | 5.2 | 0.00 | 0.13 | 0.13 | 95 | 1007.9 |
| 20260507025005 | 55 | 153 | 0.9 | 3.5 | 0.00 | 0.13 | 0.13 | 95 | 1007.9 |
| 20260507024515 | 55 | 148 | 1.7 | 3.5 | 0.00 | 0.13 | 0.13 | 95 | 1008.0 |
| 20260507024008 | 55 | 159 | 0.9 | 3.5 | 0.00 | 0.13 | 0.13 | 95 | 1008.1 |
| 20260507023504 | 55 | 187 | 0.9 | 3.5 | 0.00 | 0.13 | 0.13 | 95 | 1008.2 |
| 20260507023011 | 55 | 186 | 1.7 | 3.5 | 0.00 | 0.13 | 0.13 | 95 | 1008.3 |
| 20260507022505 | 55 | 154 | 0.9 | 3.5 | 0.00 | 0.13 | 0.13 | 95 | 1008.4 |
| 20260507022008 | 56 | 177 | 0.9 | 3.5 | 0.00 | 0.13 | 0.13 | 95 | 1008.4 |
| 20260507021514 | 56 | 153 | 1.7 | 3.5 | 0.00 | 0.13 | 0.13 | 95 | 1008.5 |
| 20260507021008 | 56 | 150 | 0.9 | 4.3 | 0.00 | 0.13 | 0.13 | 95 | 1008.6 |
| 20260507020507 | 56 | 143 | 1.7 | 4.3 | 0.00 | 0.13 | 0.13 | 95 | 1008.7 |
| 20260507020022 | 56 | 139 | 1.7 | 4.3 | 0.00 | 0.13 | 0.13 | 95 | 1008.6 |
| 20260507015506 | 56 | 180 | 1.7 | 4.3 | 0.00 | 0.13 | 0.13 | 95 | 1008.6 |
| 20260507015008 | 56 | 134 | 1.7 | 5.2 | 0.00 | 0.13 | 0.13 | 95 | 1008.7 |
| 20260507014516 | 56 | 193 | 0.9 | 5.2 | 0.00 | 0.13 | 0.13 | 95 | 1008.7 |
| 20260507014004 | 56 | 186 | 1.7 | 5.2 | 0.00 | 0.13 | 0.13 | 95 | 1008.8 |
| 20260507013505 | 56 | 175 | 2.6 | 6.1 | 0.01 | 0.13 | 0.13 | 95 | 1008.8 |
| 20260507013015 | 56 | 183 | 2.6 | 7.0 | 0.01 | 0.13 | 0.13 | 95 | 1008.9 |
| 20260507012504 | 56 | 172 | 1.7 | 7.0 | 0.01 | 0.13 | 0.13 | 95 | 1008.8 |
| 20260507012007 | 57 | 160 | 2.6 | 6.1 | 0.01 | 0.13 | 0.13 | 95 | 1008.7 |
| 20260507011523 | 56 | 148 | 1.7 | 4.3 | 0.01 | 0.13 | 0.13 | 95 | 1008.8 |
| 20260507011006 | 56 | 181 | 1.7 | 4.3 | 0.01 | 0.13 | 0.13 | 95 | 1008.8 |
| 20260507010507 | 57 | 168 | 1.7 | 5.2 | 0.02 | 0.13 | 0.13 | 95 | 1008.7 |
| 20260507010016 | 57 | 155 | 1.7 | 5.2 | 0.02 | 0.13 | 0.13 | 95 | 1008.8 |
| 20260507005507 | 57 | 153 | 1.7 | 5.2 | 0.02 | 0.13 | 0.13 | 95 | 1008.8 |
| 20260507005007 | 57 | 143 | 2.6 | 7.0 | 0.02 | 0.13 | 0.13 | 95 | 1008.7 |
| 20260507004516 | 57 | 145 | 1.7 | 7.0 | 0.02 | 0.13 | 0.13 | 95 | 1008.6 |
| 20260507004010 | 57 | 145 | 1.7 | 5.2 | 0.02 | 0.13 | 0.13 | 95 | 1008.5 |
| 20260507003508 | 57 | 157 | 2.6 | 5.2 | 0.02 | 0.12 | 0.12 | 95 | 1008.6 |
| 20260507003015 | 57 | 151 | 1.7 | 4.3 | 0.03 | 0.12 | 0.12 | 95 | 1008.7 |
| 20260507002506 | 57 | 132 | 1.7 | 5.2 | 0.03 | 0.12 | 0.12 | 95 | 1008.7 |
| 20260507002006 | 57 | 121 | 0.9 | 5.2 | 0.04 | 0.12 | 0.12 | 95 | 1008.8 |
| 20260507001543 | 57 | 183 | 2.6 | 4.3 | 0.05 | 0.12 | 0.12 | 95 | 1008.6 |
| 20260507001008 | 57 | 140 | 1.7 | 3.5 | 0.06 | 0.12 | 0.12 | 95 | 1008.7 |
| 20260507000507 | 57 | 169 | 1.7 | 3.5 | 0.06 | 0.11 | 0.11 | 95 | 1008.7 |
| 20260507000023 | 57 | 136 | 0.9 | 3.5 | 0.07 | 0.11 | 0.11 | 95 | 1008.7 |
| 20260506235506 | 56 | 195 | 0.9 | 3.5 | 0.07 | 0.11 | 0.11 | 95 | 1008.6 |
| 20260506235009 | 56 | 165 | 0.9 | 3.5 | 0.08 | 0.11 | 0.11 | 95 | 1008.5 |
| 20260506234518 | 56 | 162 | 0.9 | 2.6 | 0.08 | 0.11 | 0.11 | 94 | 1008.6 |
| 20260506234006 | 56 | 160 | 0.9 | 5.2 | 0.08 | 0.11 | 0.11 | 94 | 1008.7 |
| 20260506233506 | 56 | 113 | 0.9 | 5.2 | 0.08 | 0.10 | 0.10 | 94 | 1008.6 |
| 20260506233019 | 56 | 130 | 0.9 | 2.6 | 0.08 | 0.09 | 0.09 | 94 | 1008.6 |
| 20260506232509 | 57 | 114 | 0.9 | 4.3 | 0.09 | 0.09 | 0.09 | 94 | 1008.6 |
| 20260506232009 | 57 | 164 | 0.9 | 4.3 | 0.08 | 0.08 | 0.08 | 94 | 1008.7 |
| 20260506231520 | 57 | 190 | 0.9 | 4.3 | 0.07 | 0.07 | 0.07 | 94 | 1008.8 |
| 20260506231004 | 57 | 165 | 0.9 | 4.3 | 0.06 | 0.06 | 0.06 | 94 | 1008.9 |
| 20260506230509 | 57 | 173 | 1.7 | 4.3 | 0.05 | 0.05 | 0.05 | 93 | 1009.1 |
| 20260506230015 | 57 | 143 | 0.9 | 4.3 | 0.04 | 0.04 | 0.04 | 93 | 1009.2 |
| 20260506225503 | 57 | 164 | 0.9 | 4.3 | 0.04 | 0.04 | 0.04 | 93 | 1009.2 |
| 20260506225003 | 57 | 172 | 1.7 | 4.3 | 0.03 | 0.03 | 0.03 | 92 | 1009.1 |
| 20260506224501 | 57 | 186 | 1.7 | 3.5 | 0.03 | 0.03 | 0.03 | 92 | 1009.2 |
| 20260506224003 | 58 | 124 | 0.9 | 3.5 | 0.03 | 0.03 | 0.03 | 92 | 1009.3 |
| 20260506223503 | 58 | 171 | 1.7 | 3.5 | 0.02 | 0.02 | 0.02 | 91 | 1009.3 |
| 20260506223003 | 58 | 156 | 1.7 | 4.3 | 0.01 | 0.01 | 0.01 | 90 | 1009.4 |
| 20260506222505 | 58 | 158 | 1.7 | 4.3 | 0.00 | 0.00 | 0.00 | 89 | 1009.5 |
| 20260506222003 | 58 | 188 | 1.7 | 4.3 | 0.00 | 0.00 | 0.00 | 89 | 1009.4 |
| 20260506221511 | 58 | 190 | 0.9 | 3.5 | 0.00 | 0.00 | 0.00 | 89 | 1009.3 |
| 20260506221004 | 58 | 151 | 1.7 | 3.5 | 0.00 | 0.00 | 0.00 | 89 | 1009.3 |
| 20260506220507 | 59 | 167 | 0.9 | 3.5 | 0.00 | 0.00 | 0.00 | 88 | 1009.3 |
| 20260506220016 | 59 | 152 | 1.7 | 3.5 | 0.00 | 0.00 | 0.00 | 86 | 1009.2 |
| 20260506215507 | 60 | 143 | 1.7 | 3.5 | 0.00 | 0.00 | 0.00 | 84 | 1009.3 |
| 20260506215008 | 60 | 182 | 0.9 | 2.6 | 0.00 | 0.00 | 0.00 | 84 | 1009.2 |
| 20260506214517 | 60 | 168 | 1.7 | 2.6 | 0.00 | 0.00 | 0.00 | 83 | 1009.3 |
| 20260506214004 | 60 | 163 | 1.7 | 2.6 | 0.00 | 0.00 | 0.00 | 83 | 1009.3 |
| 20260506213505 | 60 | 139 | 0.9 | 3.5 | 0.00 | 0.00 | 0.00 | 84 | 1009.4 |
| 20260506213003 | 60 | 159 | 1.7 | 3.5 | 0.00 | 0.00 | 0.00 | 84 | 1009.5 |
| 20260506212504 | 60 | 168 | 0.9 | 3.5 | 0.00 | 0.00 | 0.00 | 83 | 1009.6 |
| 20260506212007 | 60 | 148 | 0.9 | 3.5 | 0.00 | 0.00 | 0.00 | 83 | 1009.6 |
| 20260506211506 | 60 | 134 | 1.7 | 3.5 | 0.00 | 0.00 | 0.00 | 82 | 1009.6 |
| 20260506211007 | 61 | 140 | 0.9 | 3.5 | 0.00 | 0.00 | 0.00 | 81 | 1009.5 |
| 20260506210507 | 61 | 180 | 0.9 | 4.3 | 0.00 | 0.00 | 0.00 | 80 | 1009.6 |
| 20260506210022 | 61 | 165 | 2.6 | 4.3 | 0.00 | 0.00 | 0.00 | 80 | 1009.8 |
| 20260506205509 | 61 | 162 | 1.7 | 3.5 | 0.00 | 0.00 | 0.00 | 80 | 1009.7 |
| 20260506205005 | 61 | 174 | 1.7 | 3.5 | 0.00 | 0.00 | 0.00 | 79 | 1009.6 |
| 20260506204516 | 61 | 126 | 0.9 | 3.5 | 0.00 | 0.00 | 0.00 | 79 | 1009.7 |
| 20260506204009 | 61 | 141 | 1.7 | 4.3 | 0.00 | 0.00 | 0.00 | 80 | 1009.8 |
| 20260506203511 | 62 | 184 | 1.7 | 4.3 | 0.00 | 0.00 | 0.00 | 79 | 1009.8 |
| 20260506203021 | 62 | 119 | 1.7 | 3.5 | 0.00 | 0.00 | 0.00 | 78 | 1009.9 |
| 20260506202503 | 62 | 169 | 1.7 | 3.5 | 0.00 | 0.00 | 0.00 | 78 | 1010.0 |
| 20260506202004 | 62 | 154 | 0.9 | 5.2 | 0.00 | 0.00 | 0.00 | 78 | 1009.9 |
| 20260506201506 | 62 | 180 | 0.9 | 5.2 | 0.00 | 0.00 | 0.00 | 78 | 1009.9 |
| 20260506201003 | 62 | 160 | 1.7 | 5.2 | 0.00 | 0.00 | 0.00 | 78 | 1009.8 |
| 20260506200504 | 62 | 113 | 1.7 | 5.2 | 0.00 | 0.00 | 0.00 | 78 | 1010.1 |
| 20260506200010 | 62 | 127 | 0.9 | 4.3 | 0.00 | 0.00 | 0.00 | 78 | 1010.2 |
| 20260506195504 | 61 | 283 | 0.9 | 4.3 | 0.00 | 0.00 | 0.00 | 78 | 1010.1 |
| 20260506195005 | 61 | 156 | 1.7 | 3.5 | 0.00 | 0.00 | 0.00 | 77 | 1010.2 |
| 20260506194516 | 61 | 172 | 1.7 | 3.5 | 0.00 | 0.00 | 0.00 | 77 | 1010.3 |
| 20260506194008 | 61 | 126 | 1.7 | 5.2 | 0.00 | 0.00 | 0.00 | 77 | 1010.5 |
| 20260506193507 | 61 | 158 | 1.7 | 5.2 | 0.00 | 0.00 | 0.00 | 77 | 1010.4 |
| 20260506193032 | 61 | 150 | 1.7 | 3.5 | 0.00 | 0.00 | 0.00 | 77 | 1010.4 |
| 20260506192510 | 61 | 145 | 0.9 | 3.5 | 0.00 | 0.00 | 0.00 | 77 | 1010.4 |
| 20260506192010 | 62 | 191 | 0.9 | 3.5 | 0.00 | 0.00 | 0.00 | 77 | 1010.4 |
| 20260506191524 | 62 | 74 | 1.7 | 3.5 | 0.00 | 0.00 | 0.00 | 76 | 1010.6 |
| 20260506191003 | 62 | 146 | 1.7 | 3.5 | 0.00 | 0.00 | 0.00 | 76 | 1010.4 |
| 20260506190502 | 62 | 134 | 0.9 | 4.3 | 0.00 | 0.00 | 0.00 | 76 | 1010.4 |
| 20260506190007 | 62 | 184 | 1.7 | 4.3 | 0.00 | 0.00 | 0.00 | 76 | 1010.3 |
| 20260506185510 | 63 | 138 | 1.7 | 4.3 | 0.00 | 0.00 | 0.00 | 74 | 1010.4 |
| 20260506185006 | 63 | 170 | 1.7 | 4.3 | 0.00 | 0.00 | 0.00 | 74 | 1010.5 |
| 20260506184515 | 63 | 162 | 1.7 | 4.3 | 0.00 | 0.00 | 0.00 | 75 | 1010.7 |
| 20260506184006 | 63 | 184 | 1.7 | 4.3 | 0.00 | 0.00 | 0.00 | 75 | 1010.7 |
| 20260506183507 | 63 | 154 | 1.7 | 4.3 | 0.00 | 0.00 | 0.00 | 75 | 1011.0 |
| 20260506183018 | 63 | 205 | 1.7 | 4.3 | 0.00 | 0.00 | 0.00 | 74 | 1011.0 |
| 20260506182511 | 63 | 147 | 0.9 | 6.1 | 0.00 | 0.00 | 0.00 | 74 | 1011.1 |
| 20260506182006 | 63 | 167 | 0.9 | 6.1 | 0.00 | 0.00 | 0.00 | 74 | 1011.1 |
| 20260506181534 | 64 | 174 | 1.7 | 4.3 | 0.00 | 0.00 | 0.00 | 73 | 1011.3 |
| 20260506181008 | 64 | 156 | 0.9 | 7.0 | 0.00 | 0.00 | 0.00 | 73 | 1011.4 |
| 20260506180509 | 64 | 131 | 2.6 | 7.0 | 0.00 | 0.00 | 0.00 | 73 | 1011.5 |
| 20260506180026 | 65 | 157 | 2.6 | 7.0 | 0.00 | 0.00 | 0.00 | 71 | 1011.6 |
| 20260506175502 | 66 | 172 | 1.7 | 5.2 | 0.00 | 0.00 | 0.00 | 71 | 1011.6 |
| 20260506175003 | 66 | 169 | 1.7 | 7.0 | 0.00 | 0.00 | 0.00 | 70 | 1011.8 |
| 20260506174509 | 67 | 168 | 2.6 | 7.0 | 0.00 | 0.00 | 0.00 | 70 | 1011.8 |
| 20260506174003 | 67 | 172 | 1.7 | 5.2 | 0.00 | 0.00 | 0.00 | 70 | 1011.8 |
| 20260506173509 | 67 | 134 | 2.6 | 5.2 | 0.00 | 0.00 | 0.00 | 69 | 1011.7 |
| 20260506173016 | 67 | 139 | 1.7 | 5.2 | 0.00 | 0.00 | 0.00 | 70 | 1011.8 |
| 20260506172507 | 68 | 162 | 2.6 | 5.2 | 0.00 | 0.00 | 0.00 | 68 | 1011.7 |
| 20260506172011 | 68 | 198 | 1.7 | 6.1 | 0.00 | 0.00 | 0.00 | 68 | 1011.6 |
| 20260506171520 | 68 | 137 | 1.7 | 6.1 | 0.00 | 0.00 | 0.00 | 70 | 1011.8 |
| 20260506171011 | 67 | 161 | 2.6 | 6.1 | 0.00 | 0.00 | 0.00 | 70 | 1011.9 |
| 20260506170508 | 66 | 105 | 2.6 | 6.1 | 0.00 | 0.00 | 0.00 | 72 | 1011.9 |
| 20260506170028 | 65 | 178 | 1.7 | 6.1 | 0.00 | 0.00 | 0.00 | 73 | 1012.2 |
| 20260506165510 | 65 | 203 | 2.6 | 6.1 | 0.00 | 0.00 | 0.00 | 73 | 1012.4 |
| 20260506165009 | 65 | 136 | 1.7 | 7.0 | 0.00 | 0.00 | 0.00 | 73 | 1012.3 |
| 20260506164544 | 65 | 164 | 2.6 | 11.3 | 0.00 | 0.00 | 0.00 | 73 | 1012.4 |
| 20260506164006 | 65 | 179 | 2.6 | 11.3 | 0.00 | 0.00 | 0.00 | 73 | 1012.4 |
| 20260506163505 | 65 | 195 | 2.6 | 7.8 | 0.00 | 0.00 | 0.00 | 72 | 1012.4 |
| 20260506163014 | 66 | 200 | 3.5 | 7.8 | 0.00 | 0.00 | 0.00 | 71 | 1012.4 |
| 20260506162508 | 66 | 160 | 2.6 | 7.8 | 0.00 | 0.00 | 0.00 | 71 | 1012.7 |
| 20260506162010 | 66 | 158 | 2.6 | 7.8 | 0.00 | 0.00 | 0.00 | 71 | 1012.6 |
| 20260506161521 | 67 | 186 | 2.6 | 5.2 | 0.00 | 0.00 | 0.00 | 69 | 1012.7 |
| 20260506161010 | 68 | 159 | 2.6 | 6.1 | 0.00 | 0.00 | 0.00 | 68 | 1012.8 |
| 20260506160506 | 69 | 159 | 1.7 | 8.7 | 0.00 | 0.00 | 0.00 | 68 | 1012.6 |
| 20260506160020 | 68 | 141 | 1.7 | 8.7 | 0.00 | 0.00 | 0.00 | 69 | 1012.9 |
| 20260506155508 | 68 | 158 | 2.6 | 5.2 | 0.00 | 0.00 | 0.00 | 68 | 1012.8 |
| 20260506155010 | 68 | 170 | 2.6 | 4.3 | 0.00 | 0.00 | 0.00 | 69 | 1013.0 |
| 20260506154528 | 67 | 144 | 1.7 | 6.1 | 0.00 | 0.00 | 0.00 | 71 | 1013.1 |
| 20260506154009 | 67 | 206 | 2.6 | 6.1 | 0.00 | 0.00 | 0.00 | 69 | 1013.2 |
| 20260506153511 | 68 | 177 | 2.6 | 4.3 | 0.00 | 0.00 | 0.00 | 68 | 1013.3 |
| 20260506153027 | 68 | 145 | 1.7 | 5.2 | 0.00 | 0.00 | 0.00 | 69 | 1013.3 |
| 20260506152505 | 68 | 147 | 2.6 | 5.2 | 0.00 | 0.00 | 0.00 | 69 | 1013.5 |
| 20260506152006 | 67 | 133 | 2.6 | 5.2 | 0.00 | 0.00 | 0.00 | 70 | 1013.5 |
| 20260506151516 | 67 | 101 | 2.6 | 6.1 | 0.00 | 0.00 | 0.00 | 69 | 1013.4 |
| 20260506151009 | 67 | 172 | 2.6 | 6.1 | 0.00 | 0.00 | 0.00 | 69 | 1013.4 |
| 20260506150507 | 67 | 143 | 1.7 | 6.1 | 0.00 | 0.00 | 0.00 | 71 | 1013.4 |
| 20260506150018 | 66 | 137 | 2.6 | 6.1 | 0.00 | 0.00 | 0.00 | 71 | 1013.4 |
| 20260506145505 | 66 | 186 | 2.6 | 5.2 | 0.00 | 0.00 | 0.00 | 70 | 1013.3 |
| 20260506145012 | 66 | 186 | 2.6 | 6.1 | 0.00 | 0.00 | 0.00 | 71 | 1013.2 |
| 20260506144527 | 66 | 204 | 2.6 | 6.1 | 0.00 | 0.00 | 0.00 | 70 | 1013.2 |
| 20260506144013 | 66 | 158 | 1.7 | 6.1 | 0.00 | 0.00 | 0.00 | 72 | 1013.1 |
| 20260506143512 | 65 | 164 | 1.7 | 4.3 | 0.00 | 0.00 | 0.00 | 72 | 1013.1 |
| 20260506143025 | 65 | 157 | 2.6 | 4.3 | 0.00 | 0.00 | 0.00 | 72 | 1012.9 |
| 20260506142513 | 65 | 186 | 1.7 | 6.1 | 0.00 | 0.00 | 0.00 | 72 | 1012.9 |
| 20260506142009 | 66 | 148 | 1.7 | 7.0 | 0.00 | 0.00 | 0.00 | 71 | 1013.2 |
| 20260506141523 | 67 | 148 | 2.6 | 7.0 | 0.00 | 0.00 | 0.00 | 71 | 1013.2 |
| 20260506141007 | 67 | 99 | 2.6 | 5.2 | 0.00 | 0.00 | 0.00 | 69 | 1013.2 |
| 20260506140508 | 67 | 151 | 2.6 | 7.0 | 0.00 | 0.00 | 0.00 | 70 | 1013.2 |
| 20260506140016 | 67 | 202 | 2.6 | 7.0 | 0.00 | 0.00 | 0.00 | 70 | 1013.2 |
| 20260506135503 | 67 | 175 | 2.6 | 5.2 | 0.00 | 0.00 | 0.00 | 70 | 1013.4 |
| 20260506135003 | 67 | 155 | 1.7 | 5.2 | 0.00 | 0.00 | 0.00 | 70 | 1013.4 |
| 20260506134503 | 67 | 165 | 3.5 | 5.2 | 0.00 | 0.00 | 0.00 | 70 | 1013.3 |
| 20260506134004 | 67 | 159 | 2.6 | 6.1 | 0.00 | 0.00 | 0.00 | 71 | 1013.4 |
| 20260506133504 | 66 | 201 | 1.7 | 6.1 | 0.00 | 0.00 | 0.00 | 72 | 1013.3 |
| 20260506133006 | 66 | 184 | 2.6 | 5.2 | 0.00 | 0.00 | 0.00 | 72 | 1013.3 |
| 20260506132503 | 66 | 171 | 2.6 | 5.2 | 0.00 | 0.00 | 0.00 | 73 | 1013.2 |
| 20260506132003 | 65 | 146 | 1.7 | 6.1 | 0.00 | 0.00 | 0.00 | 73 | 1013.1 |
| 20260506131510 | 65 | 133 | 2.6 | 6.1 | 0.00 | 0.00 | 0.00 | 72 | 1013.3 |
| 20260506131006 | 65 | 121 | 1.7 | 6.1 | 0.00 | 0.00 | 0.00 | 73 | 1013.2 |
| 20260506130506 | 65 | 165 | 1.7 | 5.2 | 0.00 | 0.00 | 0.00 | 74 | 1013.3 |
| 20260506130013 | 64 | 170 | 1.7 | 5.2 | 0.00 | 0.00 | 0.00 | 76 | 1013.2 |
| 20260506125510 | 0 | 148 | 1.7 | 5.2 | 0.00 | 0.00 | 0.00 | 75 | 1013.2 |
| 20260506125007 | 63 | 173 | 2.6 | 5.2 | 0.00 | 0.00 | 0.00 | 75 | 1013.2 |
| 20260506124521 | 63 | 136 | 1.7 | 5.2 | 0.00 | 0.00 | 0.00 | 76 | 1013.4 |
| 20260506124003 | 63 | 181 | 1.7 | 6.1 | 0.00 | 0.00 | 0.00 | 78 | 1013.4 |
| 20260506123503 | 62 | 167 | 1.7 | 5.2 | 0.00 | 0.00 | 0.00 | 78 | 1013.4 |
| 20260506123006 | 62 | 107 | 1.7 | 5.2 | 0.00 | 0.00 | 0.00 | 79 | 1013.3 |
| 20260506122505 | 62 | 177 | 2.6 | 6.1 | 0.00 | 0.00 | 0.00 | 79 | 1013.3 |
| 20260506122005 | 62 | 167 | 1.7 | 6.1 | 0.00 | 0.00 | 0.00 | 80 | 1013.3 |
| 20260506121512 | 61 | 178 | 1.7 | 3.5 | 0.00 | 0.00 | 0.00 | 81 | 1013.2 |
| 20260506121004 | 61 | 191 | 1.7 | 4.3 | 0.00 | 0.00 | 0.00 | 81 | 1013.5 |
| 20260506120506 | 60 | 185 | 1.7 | 5.2 | 0.00 | 0.00 | 0.00 | 82 | 1013.6 |
| 20260506120025 | 60 | 157 | 2.6 | 5.2 | 0.00 | 0.00 | 0.00 | 83 | 1013.7 |
| 20260506115506 | 60 | 180 | 1.7 | 5.2 | 0.00 | 0.00 | 0.00 | 83 | 1013.7 |
| 20260506115005 | 60 | 157 | 2.6 | 4.3 | 0.00 | 0.00 | 0.00 | 83 | 1013.5 |
| 20260506114519 | 60 | 193 | 1.7 | 5.2 | 0.00 | 0.00 | 0.00 | 82 | 1013.5 |
| 20260506114007 | 60 | 159 | 2.6 | 5.2 | 0.00 | 0.00 | 0.00 | 82 | 1013.7 |
| 20260506113511 | 60 | 174 | 2.6 | 4.3 | 0.00 | 0.00 | 0.00 | 83 | 1013.7 |
| 20260506113022 | 60 | 162 | 2.6 | 6.1 | 0.00 | 0.00 | 0.00 | 83 | 1013.7 |
| 20260506112503 | 60 | 152 | 2.6 | 7.0 | 0.00 | 0.00 | 0.00 | 83 | 1013.7 |
| 20260506112003 | 60 | 152 | 1.7 | 7.0 | 0.00 | 0.00 | 0.00 | 84 | 1013.6 |
| 20260506111507 | 59 | 160 | 2.6 | 7.0 | 0.00 | 0.00 | 0.00 | 84 | 1013.6 |
| 20260506111003 | 59 | 169 | 0.9 | 5.2 | 0.00 | 0.00 | 0.00 | 85 | 1013.5 |
| 20260506110504 | 59 | 162 | 1.7 | 4.3 | 0.00 | 0.00 | 0.00 | 85 | 1013.6 |
| 20260506110010 | 59 | 157 | 1.7 | 4.3 | 0.00 | 0.00 | 0.00 | 86 | 1013.6 |
| 20260506105503 | 58 | 184 | 1.7 | 4.3 | 0.00 | 0.00 | 0.00 | 86 | 1013.7 |
| 20260506105006 | 58 | 174 | 1.7 | 5.2 | 0.00 | 0.00 | 0.00 | 86 | 1013.5 |
| 20260506104526 | 58 | 165 | 0.9 | 5.2 | 0.00 | 0.00 | 0.00 | 86 | 1013.5 |
| 20260506104011 | 58 | 194 | 1.7 | 3.5 | 0.00 | 0.00 | 0.00 | 87 | 1013.5 |
| 20260506103508 | 58 | 155 | 0.9 | 3.5 | 0.00 | 0.00 | 0.00 | 87 | 1013.6 |
| 20260506103036 | 58 | 200 | 1.7 | 3.5 | 0.00 | 0.00 | 0.00 | 88 | 1013.6 |
| 20260506102515 | 57 | 187 | 1.7 | 5.2 | 0.00 | 0.00 | 0.00 | 88 | 1013.6 |
| 20260506102011 | 57 | 188 | 2.6 | 5.2 | 0.00 | 0.00 | 0.00 | 88 | 1013.5 |
| 20260506101525 | 57 | 154 | 1.7 | 4.3 | 0.00 | 0.00 | 0.00 | 89 | 1013.6 |
| 20260506101003 | 57 | 159 | 0.9 | 4.3 | 0.00 | 0.00 | 0.00 | 89 | 1013.5 |
| 20260506100502 | 56 | 143 | 1.7 | 4.3 | 0.00 | 0.00 | 0.00 | 89 | 1013.4 |
| 20260506100007 | 56 | 147 | 1.7 | 3.5 | 0.00 | 0.00 | 0.00 | 89 | 1013.3 |
| 20260506095505 | 56 | 188 | 1.7 | 3.5 | 0.00 | 0.00 | 0.00 | 89 | 1013.4 |
| 20260506095004 | 56 | 136 | 1.7 | 3.5 | 0.00 | 0.00 | 0.00 | 89 | 1013.4 |
| 20260506094511 | 56 | 174 | 1.7 | 3.5 | 0.00 | 0.00 | 0.00 | 89 | 1013.3 |
| 20260506094006 | 56 | 166 | 0.9 | 3.5 | 0.00 | 0.00 | 0.00 | 89 | 1013.3 |
| 20260506093508 | 56 | 139 | 1.7 | 5.2 | 0.00 | 0.00 | 0.00 | 89 | 1013.4 |
| 20260506093020 | 56 | 221 | 1.7 | 5.2 | 0.00 | 0.00 | 0.00 | 89 | 1013.5 |
| 20260506092508 | 56 | 172 | 1.7 | 5.2 | 0.00 | 0.00 | 0.00 | 89 | 1013.7 |
| 20260506092011 | 56 | 200 | 0.9 | 4.3 | 0.00 | 0.00 | 0.00 | 90 | 1013.6 |
| 20260506091522 | 56 | 155 | 0.9 | 3.5 | 0.00 | 0.00 | 0.00 | 90 | 1013.6 |
| 20260506091010 | 56 | 178 | 1.7 | 4.3 | 0.00 | 0.00 | 0.00 | 90 | 1013.5 |
| 20260506090509 | 56 | 180 | 2.6 | 4.3 | 0.00 | 0.00 | 0.00 | 90 | 1013.6 |
| 20260506090024 | 56 | 179 | 1.7 | 4.3 | 0.00 | 0.00 | 0.00 | 90 | 1013.4 |
| 20260506085503 | 56 | 184 | 0.9 | 4.3 | 0.00 | 0.00 | 0.00 | 91 | 1013.6 |
| 20260506085005 | 56 | 167 | 0.9 | 4.3 | 0.00 | 0.00 | 0.00 | 91 | 1013.7 |
| 20260506084511 | 56 | 141 | 0.9 | 2.6 | 0.00 | 0.00 | 0.00 | 91 | 1013.9 |
| 20260506084006 | 55 | 213 | 0.9 | 2.6 | 0.00 | 0.00 | 0.00 | 90 | 1013.8 |
| 20260506083506 | 56 | 137 | 0.9 | 2.6 | 0.00 | 0.00 | 0.00 | 90 | 1013.8 |
| 20260506083013 | 56 | 172 | 0.9 | 6.1 | 0.00 | 0.00 | 0.00 | 90 | 1013.7 |
| 20260506082508 | 56 | 168 | 1.7 | 6.1 | 0.00 | 0.00 | 0.00 | 90 | 1013.8 |
| 20260506082004 | 55 | 206 | 0.9 | 3.5 | 0.00 | 0.00 | 0.00 | 90 | 1013.8 |
| 20260506081527 | 55 | 200 | 1.7 | 3.5 | 0.00 | 0.00 | 0.00 | 90 | 1013.9 |
| 20260506081010 | 56 | 176 | 0.9 | 2.6 | 0.00 | 0.00 | 0.00 | 90 | 1014.0 |
| 20260506080509 | 56 | 161 | 1.7 | 4.3 | 0.00 | 0.00 | 0.00 | 90 | 1013.9 |